Location: Sungai Bunut
(2.6333°N, 113.7333°E)
Time: 20:24:12
(UTC+00:00)

Hubble Space Telescope - Visible Passes

Search period start: 21 January 2022 00:00
Search period end: 31 January 2022 00:00
Orbit: 535 x 538 km, 28.5° (Epoch: 21 January)

Date Brightness Start Highest point End Pass type
(mag) Time Alt. Az. Time Alt. Az. Time Alt. Az.
21 Jan 1.5 12:09:23 10° SW 12:12:54 43° S 12:12:54 43° S visible
22 Jan 0.7 11:58:00 10° SW 12:02:05 66° SSE 12:02:27 62° ESE visible
22 Jan 2.5 22:11:11 10° NNW 22:14:35 25° NNE 22:17:58 10° E visible
23 Jan 0.6 11:46:43 10° WSW 11:50:50 87° NNW 11:52:01 45° NE visible
23 Jan 2.0 21:59:37 10° NW 22:03:21 33° NNE 22:07:06 10° E visible
24 Jan 1.0 11:35:31 10° WSW 11:39:34 60° NNW 11:41:36 27° NE visible
24 Jan 1.5 21:48:55 15° NW 21:52:07 46° NNE 21:56:05 10° ESE visible
25 Jan 1.6 11:24:26 10° W 11:28:20 42° NNW 11:31:12 17° NE visible
25 Jan 0.9 21:38:30 24° NW 21:40:51 67° NNE 21:44:57 10° ESE visible
26 Jan 2.1 11:13:27 10° W 11:17:06 30° NNW 11:20:45 10° NE visible
26 Jan 0.7 21:28:05 38° WNW 21:29:36 85° SSW 21:33:44 10° ESE visible
27 Jan 2.6 11:02:36 10° W 11:05:52 23° NNW 11:09:09 10° NNE visible
27 Jan 0.9 21:17:40 51° WSW 21:18:20 59° SSW 21:22:24 10° SE visible
28 Jan 3.0 10:51:56 10° WNW 10:54:39 17° NNW 10:57:23 10° NNE visible
28 Jan 1.5 21:07:15 41° SSW 21:07:15 41° SSW 21:10:59 10° SE visible
29 Jan 2.3 20:56:48 26° S 20:56:48 26° S 20:59:27 10° SSE visible
30 Jan 3.1 20:46:19 17° S 20:46:19 17° S 20:47:47 10° SSE visible
